Location: Casteau
(50.5142°N, 4.0161°E)
Time: 02:18:02
(UTC+00:00)

S-56A Canister/Altair - Pass Details

Date: 05 August 2021
Orbit: 632 x 2500 km, 38.9° (Epoch: 16 September)

Event Time Altitude Azimuth Distance (km) Brightness Sun altitude
Rises 19:06:13 0° 278° (W) 6,074 13.9 1.3°
Reaches altitude 10° 19:10:52 10° 269° (W) 5,146 13.0 0.7°
Maximum altitude 19:22:33 29° 218° (SW) 3,741 11.2 -1.0°
Drops below altitude 10° 19:33:12 10° 166° (SSE) 4,648 11.1 -2.5°
Sets 19:37:11 0° 156° (SSE) 5,411 11.3 -3.0°
